| time (UTC) | temp F | wind direction | speed MPH | gust MPH | rain 1hr in | rain 24hr in | rain mn in | humidity % | barometer mb |
| 20260901104202 | 78 | 249 | 2.0 | 4.0 | 0.00 | 0.00 | 0.00 | 83 | 101.4 |
| 20260901103702 | 78 | 224 | 2.0 | 5.0 | 0.00 | 0.00 | 0.00 | 83 | 101.4 |
| 20260901102702 | 78 | 254 | 1.0 | 3.0 | 0.00 | 0.00 | 0.00 | 83 | 101.4 |
| 20260901101202 | 78 | 131 | 0.0 | 4.0 | 0.00 | 0.00 | 0.00 | 83 | 101.5 |
| 20260901100702 | 78 | 162 | 2.0 | 4.0 | 0.00 | 0.00 | 0.00 | 83 | 101.5 |
| 20260901095202 | 78 | 222 | 2.0 | 4.0 | 0.00 | 0.00 | 0.00 | 83 | 101.4 |
| 20260901094702 | 79 | 236 | 2.0 | 4.0 | 0.00 | 0.00 | 0.00 | 82 | 101.4 |
| 20260901094202 | 79 | 250 | 5.0 | 5.0 | 0.00 | 0.00 | 0.00 | 81 | 101.4 |
| 20260901093704 | 79 | 240 | 3.0 | 5.0 | 0.00 | 0.00 | 0.00 | 81 | 101.4 |
| 20260901093202 | 79 | 229 | 0.0 | 5.0 | 0.00 | 0.00 | 0.00 | 80 | 101.4 |
| 20260901092202 | 79 | 228 | 2.0 | 2.0 | 0.00 | 0.00 | 0.00 | 80 | 101.5 |
| 20260901091702 | 79 | 188 | 2.0 | 4.0 | 0.00 | 0.00 | 0.00 | 80 | 101.5 |
| 20260901091202 | 79 | 227 | 3.0 | 4.0 | 0.00 | 0.00 | 0.00 | 80 | 101.5 |
| 20260901090701 | 79 | 233 | 2.0 | 4.0 | 0.00 | 0.00 | 0.00 | 79 | 101.5 |
| 20260901090202 | 79 | 192 | 6.0 | 6.0 | 0.00 | 0.00 | 0.00 | 79 | 101.4 |
| 20260901085702 | 79 | 265 | 2.0 | 4.0 | 0.00 | 0.00 | 0.00 | 79 | 101.4 |
| 20260901085202 | 79 | 302 | 2.0 | 6.0 | 0.00 | 0.00 | 0.00 | 78 | 101.4 |
| 20260901083702 | 79 | 213 | 2.0 | 8.0 | 0.00 | 0.00 | 0.00 | 77 | 101.4 |
| 20260901083202 | 79 | 209 | 2.0 | 5.0 | 0.00 | 0.00 | 0.00 | 77 | 101.4 |
| 20260901082701 | 79 | 240 | 1.0 | 4.0 | 0.00 | 0.00 | 0.00 | 76 | 101.5 |
| 20260901082202 | 79 | 193 | 3.0 | 6.0 | 0.00 | 0.00 | 0.00 | 75 | 101.5 |
| 20260901081703 | 79 | 220 | 3.0 | 3.0 | 0.00 | 0.00 | 0.00 | 75 | 101.5 |
| 20260901081202 | 79 | 228 | 1.0 | 2.0 | 0.00 | 0.00 | 0.00 | 74 | 101.5 |
| 20260901080702 | 79 | 204 | 3.0 | 4.0 | 0.00 | 0.00 | 0.00 | 74 | 101.5 |
| 20260901080202 | 80 | 298 | 2.0 | 2.0 | 0.00 | 0.00 | 0.00 | 74 | 101.4 |
| 20260901075702 | 80 | 221 | 2.0 | 2.0 | 0.00 | 0.00 | 0.00 | 73 | 101.4 |
| 20260901075202 | 80 | 194 | 1.0 | 2.0 | 0.00 | 0.00 | 0.00 | 73 | 101.4 |
| 20260901074702 | 80 | 208 | 1.0 | 2.0 | 0.00 | 0.00 | 0.00 | 72 | 101.4 |
| 20260901074202 | 80 | 199 | 2.0 | 2.0 | 0.00 | 0.00 | 0.00 | 71 | 101.4 |
| 20260901073702 | 81 | 205 | 1.0 | 3.0 | 0.00 | 0.00 | 0.00 | 71 | 101.4 |
| 20260901073202 | 81 | 216 | 2.0 | 2.0 | 0.00 | 0.00 | 0.00 | 70 | 101.4 |
| 20260901072702 | 81 | 198 | 2.0 | 4.0 | 0.00 | 0.00 | 0.00 | 70 | 101.5 |
| 20260901072202 | 81 | 185 | 1.0 | 2.0 | 0.00 | 0.00 | 0.00 | 69 | 101.5 |
| 20260901071702 | 81 | 193 | 2.0 | 4.0 | 0.00 | 0.00 | 0.00 | 69 | 101.5 |
| 20260901071202 | 81 | 187 | 2.0 | 3.0 | 0.00 | 0.00 | 0.00 | 68 | 101.5 |
| 20260901070702 | 81 | 188 | 2.0 | 5.0 | 0.00 | 0.00 | 0.00 | 68 | 101.5 |
| 20260901070202 | 81 | 255 | 2.0 | 6.0 | 0.00 | 0.00 | 0.00 | 68 | 101.4 |
| 20260901065702 | 81 | 196 | 2.0 | 4.0 | 0.00 | 0.00 | 0.00 | 68 | 101.4 |
| 20260901064702 | 82 | 182 | 4.0 | 4.0 | 0.00 | 0.00 | 0.00 | 69 | 101.4 |
| 20260901064202 | 82 | 184 | 4.0 | 6.0 | 0.00 | 0.00 | 0.00 | 69 | 101.4 |
| 20260901063202 | 82 | 192 | 2.0 | 3.0 | 0.00 | 0.00 | 0.00 | 69 | 101.4 |
| 20260901062702 | 82 | 246 | 3.0 | 4.0 | 0.00 | 0.00 | 0.00 | 69 | 101.4 |
| 20260901062202 | 82 | 208 | 2.0 | 4.0 | 0.00 | 0.00 | 0.00 | 69 | 101.4 |
| 20260901061702 | 82 | 227 | 2.0 | 4.0 | 0.00 | 0.00 | 0.00 | 68 | 101.4 |
| 20260901061202 | 82 | 181 | 1.0 | 4.0 | 0.00 | 0.00 | 0.00 | 68 | 101.4 |
| 20260901060702 | 82 | 181 | 0.0 | 4.0 | 0.00 | 0.00 | 0.00 | 68 | 101.4 |
| 20260901060202 | 82 | 210 | 1.0 | 5.0 | 0.00 | 0.00 | 0.00 | 67 | 101.4 |
| 20260901055701 | 82 | 236 | 1.0 | 5.0 | 0.00 | 0.00 | 0.00 | 66 | 101.4 |
| 20260901055202 | 82 | 191 | 1.0 | 5.0 | 0.00 | 0.00 | 0.00 | 66 | 101.4 |
| 20260901054702 | 82 | 211 | 1.0 | 4.0 | 0.00 | 0.00 | 0.00 | 65 | 101.4 |
| 20260901054202 | 83 | 203 | 1.0 | 4.0 | 0.00 | 0.00 | 0.00 | 65 | 101.4 |
| 20260901053702 | 83 | 217 | 1.0 | 2.0 | 0.00 | 0.00 | 0.00 | 64 | 101.4 |
| 20260901052702 | 83 | 194 | 5.0 | 7.0 | 0.00 | 0.00 | 0.00 | 63 | 101.4 |
| 20260901052202 | 83 | 231 | 2.0 | 5.0 | 0.00 | 0.00 | 0.00 | 63 | 101.4 |
| 20260901051702 | 84 | 189 | 2.0 | 5.0 | 0.00 | 0.00 | 0.00 | 63 | 101.4 |
| 20260901050703 | 84 | 225 | 3.0 | 6.0 | 0.00 | 0.00 | 0.00 | 62 | 101.4 |
| 20260901050202 | 84 | 206 | 4.0 | 7.0 | 0.00 | 0.00 | 0.00 | 62 | 101.4 |
| 20260901045702 | 84 | 206 | 4.0 | 6.0 | 0.00 | 0.00 | 0.00 | 61 | 101.4 |
| 20260901045202 | 84 | 160 | 2.0 | 8.0 | 0.00 | 0.00 | 0.00 | 61 | 101.4 |
| 20260901044702 | 84 | 193 | 4.0 | 8.0 | 0.00 | 0.00 | 0.00 | 61 | 101.4 |
| 20260901044202 | 85 | 197 | 5.0 | 6.0 | 0.00 | 0.00 | 0.00 | 60 | 101.4 |
| 20260901043702 | 85 | 182 | 4.0 | 7.0 | 0.00 | 0.00 | 0.00 | 60 | 101.4 |
| 20260901042702 | 85 | 183 | 1.0 | 8.0 | 0.00 | 0.00 | 0.00 | 59 | 101.4 |
| 20260901042202 | 85 | 190 | 2.0 | 9.0 | 0.00 | 0.00 | 0.00 | 58 | 101.4 |
| 20260901041702 | 85 | 148 | 0.0 | 4.0 | 0.00 | 0.00 | 0.00 | 58 | 101.4 |
| 20260901041202 | 85 | 188 | 3.0 | 7.0 | 0.00 | 0.00 | 0.00 | 57 | 101.4 |
| 20260901040702 | 86 | 212 | 3.0 | 5.0 | 0.00 | 0.00 | 0.00 | 56 | 101.4 |
| 20260901040202 | 86 | 219 | 0.0 | 4.0 | 0.00 | 0.00 | 0.00 | 56 | 101.3 |
| 20260901035702 | 86 | 168 | 1.0 | 6.0 | 0.00 | 0.00 | 0.00 | 55 | 101.3 |
| 20260901035202 | 86 | 203 | 1.0 | 6.0 | 0.00 | 0.00 | 0.00 | 55 | 101.3 |
| 20260901034702 | 86 | 187 | 4.0 | 7.0 | 0.00 | 0.00 | 0.00 | 54 | 101.3 |
| 20260901033702 | 87 | 125 | 1.0 | 6.0 | 0.00 | 0.00 | 0.00 | 53 | 101.3 |
| 20260901033202 | 87 | 204 | 3.0 | 5.0 | 0.00 | 0.00 | 0.00 | 52 | 101.3 |
| 20260901032701 | 87 | 188 | 1.0 | 6.0 | 0.00 | 0.00 | 0.00 | 52 | 101.3 |
| 20260901032202 | 87 | 180 | 5.0 | 12.0 | 0.00 | 0.00 | 0.00 | 51 | 101.3 |
| 20260901031702 | 88 | 171 | 3.0 | 7.0 | 0.00 | 0.00 | 0.00 | 51 | 101.3 |
| 20260901031202 | 88 | 188 | 3.0 | 6.0 | 0.00 | 0.00 | 0.00 | 50 | 101.3 |
| 20260901030702 | 88 | 89 | 1.0 | 6.0 | 0.00 | 0.00 | 0.00 | 50 | 101.3 |
| 20260901030202 | 88 | 141 | 1.0 | 6.0 | 0.00 | 0.00 | 0.00 | 49 | 101.3 |
| 20260901025702 | 88 | 191 | 2.0 | 6.0 | 0.00 | 0.00 | 0.00 | 48 | 101.3 |
| 20260901025202 | 87 | 163 | 0.0 | 4.0 | 0.00 | 0.00 | 0.00 | 46 | 101.3 |
| 20260901024701 | 87 | 254 | 1.0 | 4.0 | 0.00 | 0.00 | 0.00 | 45 | 101.3 |
| 20260901024202 | 87 | 194 | 1.0 | 1.0 | 0.00 | 0.00 | 0.00 | 44 | 101.3 |
| 20260901023702 | 88 | 180 | 0.0 | 0.0 | 0.00 | 0.00 | 0.00 | 43 | 101.3 |
| 20260901023201 | 88 | 202 | 0.0 | 0.0 | 0.00 | 0.00 | 0.00 | 42 | 101.3 |
| 20260901022702 | 88 | 195 | 0.0 | 0.0 | 0.00 | 0.00 | 0.00 | 42 | 101.2 |
| 20260901022203 | 88 | 117 | 0.0 | 0.0 | 0.00 | 0.00 | 0.00 | 42 | 101.2 |
| 20260901021702 | 88 | 224 | 0.0 | 2.0 | 0.00 | 0.00 | 0.00 | 42 | 101.2 |
| 20260901020702 | 88 | 224 | 0.0 | 1.0 | 0.00 | 0.00 | 0.00 | 42 | 101.2 |
| 20260901020202 | 89 | 186 | 0.0 | 0.0 | 0.00 | 0.00 | 0.00 | 42 | 101.2 |
| 20260901015702 | 88 | 135 | 0.0 | 1.0 | 0.00 | 0.00 | 0.00 | 42 | 101.2 |
| 20260901014203 | 89 | 203 | 0.0 | 0.0 | 0.00 | 0.00 | 0.00 | 42 | 101.2 |
| 20260901013702 | 89 | 269 | 0.0 | 1.0 | 0.00 | 0.00 | 0.00 | 42 | 101.2 |
| 20260901013202 | 89 | 199 | 0.0 | 1.0 | 0.00 | 0.00 | 0.00 | 41 | 101.2 |
| 20260901012702 | 90 | 231 | 0.0 | 1.0 | 0.00 | 0.00 | 0.00 | 41 | 101.2 |
| 20260901012202 | 90 | 245 | 1.0 | 1.0 | 0.00 | 0.00 | 0.00 | 40 | 101.2 |
| 20260901011203 | 91 | 142 | 0.0 | 0.0 | 0.00 | 0.00 | 0.00 | 39 | 101.2 |
| 20260901010702 | 91 | 224 | 0.0 | 1.0 | 0.00 | 0.00 | 0.00 | 38 | 101.2 |
| 20260901010202 | 91 | 269 | 0.0 | 1.0 | 0.00 | 0.00 | 0.00 | 38 | 101.1 |
| 20260901005702 | 92 | 242 | 0.0 | 1.0 | 0.00 | 0.00 | 0.00 | 37 | 101.1 |
| 20260901005202 | 92 | 224 | 0.0 | 2.0 | 0.00 | 0.00 | 0.00 | 37 | 101.1 |
| 20260901004703 | 93 | 215 | 0.0 | 2.0 | 0.00 | 0.00 | 0.00 | 36 | 101.1 |
| 20260901004202 | 93 | 237 | 1.0 | 2.0 | 0.00 | 0.00 | 0.00 | 36 | 101.1 |
| 20260901003702 | 93 | 135 | 0.0 | 1.0 | 0.00 | 0.00 | 0.00 | 36 | 101.1 |
| 20260901003202 | 93 | 135 | 0.0 | 1.0 | 0.00 | 0.00 | 0.00 | 36 | 101.2 |
| 20260901002702 | 94 | 231 | 0.0 | 4.0 | 0.00 | 0.00 | 0.00 | 36 | 101.2 |
| 20260901002202 | 94 | 157 | 0.0 | 4.0 | 0.00 | 0.00 | 0.00 | 35 | 101.2 |
| 20260901001702 | 94 | 131 | 2.0 | 8.0 | 0.00 | 0.00 | 0.00 | 35 | 101.2 |
| 20260901000702 | 95 | 135 | 0.0 | 2.0 | 0.00 | 0.00 | 0.00 | 35 | 101.2 |
| 20260901000203 | 95 | 210 | 0.0 | 3.0 | 0.00 | 0.00 | 0.00 | 34 | 101.0 |
| 20260831235702 | 95 | 230 | 2.0 | 2.0 | 0.00 | 0.00 | 0.00 | 34 | 101.0 |
| 20260831235202 | 95 | 213 | 2.0 | 3.0 | 0.00 | 0.00 | 0.00 | 34 | 101.0 |
| 20260831234702 | 95 | 243 | 1.0 | 2.0 | 0.00 | 0.00 | 0.00 | 35 | 101.1 |
| 20260831234202 | 95 | 192 | 2.0 | 6.0 | 0.00 | 0.00 | 0.00 | 34 | 101.1 |
| 20260831233702 | 95 | 167 | 1.0 | 4.0 | 0.00 | 0.00 | 0.00 | 33 | 101.1 |
| 20260831233202 | 95 | 195 | 0.0 | 2.0 | 0.00 | 0.00 | 0.00 | 34 | 101.1 |
| 20260831231702 | 97 | 100 | 1.0 | 5.0 | 0.00 | 0.00 | 0.00 | 34 | 101.2 |
| 20260831231202 | 96 | 154 | 0.0 | 4.0 | 0.00 | 0.00 | 0.00 | 34 | 101.2 |
| 20260831230702 | 96 | 38 | 1.0 | 2.0 | 0.00 | 0.00 | 0.00 | 33 | 101.2 |
| 20260831225202 | 96 | 231 | 0.0 | 3.0 | 0.00 | 0.00 | 0.00 | 31 | 101.1 |
| 20260831224702 | 96 | 217 | 0.0 | 3.0 | 0.00 | 0.00 | 0.00 | 31 | 101.1 |
| 20260831224202 | 96 | 146 | 0.0 | 4.0 | 0.00 | 0.00 | 0.00 | 30 | 101.1 |
| 20260831223702 | 97 | 195 | 1.0 | 3.0 | 0.00 | 0.00 | 0.00 | 32 | 101.1 |
| 20260831222702 | 96 | 120 | 2.0 | 5.0 | 0.00 | 0.00 | 0.00 | 32 | 101.2 |
| 20260831222203 | 95 | 243 | 0.0 | 3.0 | 0.00 | 0.00 | 0.00 | 33 | 101.2 |
| 20260831220202 | 96 | 210 | 3.0 | 6.0 | 0.00 | 0.00 | 0.00 | 35 | 101.1 |
| 20260831215702 | 96 | 153 | 2.0 | 6.0 | 0.00 | 0.00 | 0.00 | 35 | 101.1 |
| 20260831215202 | 96 | 130 | 0.0 | 3.0 | 0.00 | 0.00 | 0.00 | 36 | 101.1 |
| 20260831214702 | 96 | 206 | 4.0 | 7.0 | 0.00 | 0.00 | 0.00 | 36 | 101.1 |
| 20260831214202 | 96 | 198 | 4.0 | 6.0 | 0.00 | 0.00 | 0.00 | 36 | 101.1 |
| 20260831213702 | 95 | 228 | 1.0 | 2.0 | 0.00 | 0.00 | 0.00 | 36 | 101.1 |
| 20260831213202 | 95 | 196 | 0.0 | 4.0 | 0.00 | 0.00 | 0.00 | 37 | 101.3 |
| 20260831212702 | 96 | 248 | 2.0 | 6.0 | 0.00 | 0.00 | 0.00 | 37 | 101.3 |
| 20260831212201 | 95 | 230 | 3.0 | 9.0 | 0.00 | 0.00 | 0.00 | 38 | 101.3 |
| 20260831211702 | 95 | 229 | 2.0 | 8.0 | 0.00 | 0.00 | 0.00 | 38 | 101.3 |
| 20260831211202 | 96 | 227 | 4.0 | 8.0 | 0.00 | 0.00 | 0.00 | 37 | 101.3 |
| 20260831210702 | 95 | 186 | 1.0 | 4.0 | 0.00 | 0.00 | 0.00 | 37 | 101.3 |
| 20260831210202 | 95 | 206 | 3.0 | 7.0 | 0.00 | 0.00 | 0.00 | 38 | 101.2 |
| 20260831205702 | 95 | 253 | 2.0 | 8.0 | 0.00 | 0.00 | 0.00 | 39 | 101.2 |
| 20260831204702 | 92 | 258 | 2.0 | 2.0 | 0.00 | 0.00 | 0.00 | 40 | 101.2 |
| 20260831204201 | 94 | 232 | 1.0 | 6.0 | 0.00 | 0.00 | 0.00 | 40 | 101.2 |
| 20260831203702 | 95 | 229 | 2.0 | 5.0 | 0.00 | 0.00 | 0.00 | 41 | 101.2 |
| 20260831203202 | 95 | 193 | 3.0 | 6.0 | 0.00 | 0.00 | 0.00 | 40 | 101.4 |
| 20260831202703 | 93 | 342 | 1.0 | 6.0 | 0.00 | 0.00 | 0.00 | 41 | 101.4 |
| 20260831202202 | 93 | 186 | 0.0 | 3.0 | 0.00 | 0.00 | 0.00 | 41 | 101.4 |
| 20260831201702 | 95 | 200 | 6.0 | 8.0 | 0.00 | 0.00 | 0.00 | 40 | 101.4 |
| 20260831201202 | 97 | 206 | 5.0 | 9.0 | 0.00 | 0.00 | 0.00 | 39 | 101.4 |
| 20260831200701 | 95 | 190 | 3.0 | 5.0 | 0.00 | 0.00 | 0.00 | 39 | 101.4 |
| 20260831200202 | 95 | 117 | 0.0 | 10.0 | 0.00 | 0.00 | 0.00 | 40 | 101.3 |
| 20260831195703 | 95 | 226 | 3.0 | 4.0 | 0.00 | 0.00 | 0.00 | 39 | 101.3 |
| 20260831194702 | 95 | 123 | 0.0 | 5.0 | 0.00 | 0.00 | 0.00 | 39 | 101.3 |
| 20260831193702 | 96 | 212 | 4.0 | 8.0 | 0.00 | 0.00 | 0.00 | 38 | 101.3 |
| 20260831192202 | 93 | 206 | 4.0 | 5.0 | 0.00 | 0.00 | 0.00 | 43 | 101.5 |
| 20260831191202 | 93 | 225 | 4.0 | 10.0 | 0.00 | 0.00 | 0.00 | 42 | 101.5 |
| 20260831190702 | 92 | 209 | 4.0 | 9.0 | 0.00 | 0.00 | 0.00 | 43 | 101.5 |
| 20260831190202 | 93 | 218 | 4.0 | 9.0 | 0.00 | 0.00 | 0.00 | 44 | 101.4 |
| 20260831185702 | 94 | 195 | 8.0 | 11.0 | 0.00 | 0.00 | 0.00 | 42 | 101.4 |
| 20260831184702 | 93 | 194 | 4.0 | 12.0 | 0.00 | 0.00 | 0.00 | 42 | 101.4 |
| 20260831184202 | 93 | 229 | 2.0 | 5.0 | 0.00 | 0.00 | 0.00 | 42 | 101.4 |
| 20260831183702 | 92 | 245 | 3.0 | 8.0 | 0.00 | 0.00 | 0.00 | 44 | 101.4 |
| 20260831183202 | 92 | 207 | 3.0 | 6.0 | 0.00 | 0.00 | 0.00 | 44 | 101.5 |
| 20260831181702 | 91 | 199 | 0.0 | 2.0 | 0.00 | 0.00 | 0.00 | 44 | 101.5 |
| 20260831181201 | 91 | 134 | 0.0 | 3.0 | 0.00 | 0.00 | 0.00 | 45 | 101.5 |
| 20260831180702 | 93 | 204 | 6.0 | 10.0 | 0.00 | 0.00 | 0.00 | 45 | 101.5 |
| 20260831180202 | 92 | 202 | 0.0 | 3.0 | 0.00 | 0.00 | 0.00 | 45 | 101.5 |
| 20260831175702 | 91 | 187 | 1.0 | 6.0 | 0.00 | 0.00 | 0.00 | 45 | 101.5 |
| 20260831175202 | 91 | 181 | 4.0 | 10.0 | 0.00 | 0.00 | 0.00 | 45 | 101.5 |
| 20260831174702 | 91 | 190 | 3.0 | 3.0 | 0.00 | 0.00 | 0.00 | 48 | 101.5 |
| 20260831173702 | 91 | 170 | 3.0 | 11.0 | 0.00 | 0.00 | 0.00 | 50 | 101.5 |
| 20260831173203 | 90 | 246 | 4.0 | 5.0 | 0.00 | 0.00 | 0.00 | 49 | 101.6 |
| 20260831172701 | 90 | 191 | 3.0 | 6.0 | 0.00 | 0.00 | 0.00 | 49 | 101.6 |
| 20260831172202 | 91 | 242 | 5.0 | 6.0 | 0.00 | 0.00 | 0.00 | 49 | 101.6 |
| 20260831171702 | 91 | 200 | 7.0 | 11.0 | 0.00 | 0.00 | 0.00 | 49 | 101.6 |
| 20260831171202 | 90 | 134 | 1.0 | 6.0 | 0.00 | 0.00 | 0.00 | 50 | 101.6 |
| 20260831170203 | 90 | 193 | 0.0 | 5.0 | 0.00 | 0.00 | 0.00 | 53 | 101.5 |
| 20260831165702 | 89 | 236 | 3.0 | 6.0 | 0.00 | 0.00 | 0.00 | 54 | 101.5 |
| 20260831165202 | 88 | 195 | 2.0 | 5.0 | 0.00 | 0.00 | 0.00 | 55 | 101.5 |
| 20260831164702 | 89 | 222 | 2.0 | 6.0 | 0.00 | 0.00 | 0.00 | 53 | 101.5 |
| 20260831164202 | 89 | 234 | 4.0 | 7.0 | 0.00 | 0.00 | 0.00 | 54 | 101.5 |
| 20260831163702 | 88 | 230 | 4.0 | 4.0 | 0.00 | 0.00 | 0.00 | 56 | 101.5 |
| 20260831163202 | 88 | 151 | 1.0 | 5.0 | 0.00 | 0.00 | 0.00 | 56 | 101.6 |
| 20260831162202 | 88 | 235 | 2.0 | 6.0 | 0.00 | 0.00 | 0.00 | 59 | 101.6 |
| 20260831161703 | 87 | 216 | 4.0 | 6.0 | 0.00 | 0.00 | 0.00 | 59 | 101.6 |
| 20260831161202 | 86 | 242 | 2.0 | 4.0 | 0.00 | 0.00 | 0.00 | 59 | 101.6 |
| 20260831160702 | 86 | 221 | 1.0 | 6.0 | 0.00 | 0.00 | 0.00 | 60 | 101.6 |
| 20260831160202 | 86 | 197 | 6.0 | 7.0 | 0.00 | 0.00 | 0.00 | 60 | 101.6 |
| 20260831155702 | 86 | 243 | 3.0 | 9.0 | 0.00 | 0.00 | 0.00 | 60 | 101.6 |
| 20260831155202 | 85 | 190 | 2.0 | 3.0 | 0.00 | 0.00 | 0.00 | 62 | 101.6 |
| 20260831154702 | 84 | 229 | 1.0 | 5.0 | 0.00 | 0.00 | 0.00 | 65 | 101.6 |
| 20260831154202 | 85 | 195 | 6.0 | 7.0 | 0.00 | 0.00 | 0.00 | 64 | 101.6 |
| 20260831153702 | 86 | 238 | 4.0 | 8.0 | 0.00 | 0.00 | 0.00 | 65 | 101.6 |
| 20260831153202 | 84 | 256 | 2.0 | 5.0 | 0.00 | 0.00 | 0.00 | 66 | 101.6 |
| 20260831152702 | 84 | 214 | 4.0 | 6.0 | 0.00 | 0.00 | 0.00 | 67 | 101.6 |
| 20260831152202 | 84 | 245 | 4.0 | 6.0 | 0.00 | 0.00 | 0.00 | 67 | 101.6 |
| 20260831151702 | 84 | 175 | 3.0 | 9.0 | 0.00 | 0.00 | 0.00 | 68 | 101.6 |
| 20260831150702 | 82 | 240 | 3.0 | 4.0 | 0.00 | 0.00 | 0.00 | 73 | 101.6 |
| 20260831150203 | 81 | 238 | 2.0 | 6.0 | 0.00 | 0.00 | 0.00 | 74 | 101.6 |
| 20260831145702 | 81 | 260 | 4.0 | 4.0 | 0.00 | 0.00 | 0.00 | 77 | 101.6 |
| 20260831144703 | 82 | 179 | 3.0 | 10.0 | 0.00 | 0.00 | 0.00 | 75 | 101.6 |
| 20260831144202 | 81 | 269 | 3.0 | 8.0 | 0.00 | 0.00 | 0.00 | 76 | 101.6 |
| 20260831143703 | 81 | 214 | 5.0 | 6.0 | 0.00 | 0.00 | 0.00 | 77 | 101.6 |
| 20260831143202 | 81 | 184 | 4.0 | 7.0 | 0.00 | 0.00 | 0.00 | 79 | 101.5 |
| 20260831142702 | 81 | 180 | 5.0 | 7.0 | 0.00 | 0.00 | 0.00 | 79 | 101.5 |
| 20260831142203 | 81 | 166 | 4.0 | 7.0 | 0.00 | 0.00 | 0.00 | 80 | 101.5 |
| 20260831141202 | 80 | 264 | 2.0 | 4.0 | 0.00 | 0.00 | 0.00 | 83 | 101.5 |
| 20260831140701 | 80 | 228 | 2.0 | 6.0 | 0.00 | 0.00 | 0.00 | 84 | 101.5 |
| 20260831140202 | 80 | 192 | 2.0 | 6.0 | 0.00 | 0.00 | 0.00 | 84 | 101.5 |
| 20260831135202 | 79 | 236 | 3.0 | 7.0 | 0.00 | 0.00 | 0.00 | 85 | 101.5 |
| 20260831134702 | 79 | 248 | 3.0 | 4.0 | 0.00 | 0.00 | 0.00 | 86 | 101.5 |
| 20260831134202 | 79 | 199 | 3.0 | 6.0 | 0.00 | 0.00 | 0.00 | 86 | 101.5 |
| 20260831133702 | 79 | 266 | 2.0 | 4.0 | 0.00 | 0.00 | 0.00 | 87 | 101.5 |
| 20260831133202 | 79 | 252 | 1.0 | 8.0 | 0.00 | 0.00 | 0.00 | 87 | 101.5 |
| 20260831132702 | 79 | 272 | 2.0 | 4.0 | 0.00 | 0.00 | 0.00 | 87 | 101.5 |
| 20260831132202 | 78 | 189 | 4.0 | 5.0 | 0.00 | 0.00 | 0.00 | 88 | 101.5 |
| 20260831131702 | 78 | 165 | 2.0 | 7.0 | 0.00 | 0.00 | 0.00 | 88 | 101.5 |
| 20260831131202 | 78 | 221 | 2.0 | 5.0 | 0.00 | 0.00 | 0.00 | 89 | 101.5 |
| 20260831130702 | 78 | 213 | 3.0 | 4.0 | 0.00 | 0.00 | 0.00 | 89 | 101.5 |
| 20260831125202 | 77 | 206 | 2.0 | 2.0 | 0.00 | 0.00 | 0.00 | 89 | 101.5 |
| 20260831124202 | 77 | 191 | 1.0 | 5.0 | 0.00 | 0.00 | 0.00 | 90 | 101.5 |
| 20260831123702 | 77 | 215 | 2.0 | 3.0 | 0.00 | 0.00 | 0.00 | 89 | 101.5 |
| 20260831123202 | 77 | 256 | 3.0 | 4.0 | 0.00 | 0.00 | 0.00 | 89 | 101.5 |
| 20260831122702 | 77 | 239 | 1.0 | 3.0 | 0.00 | 0.00 | 0.00 | 90 | 101.5 |
| 20260831122201 | 77 | 172 | 2.0 | 5.0 | 0.00 | 0.00 | 0.00 | 89 | 101.5 |
| 20260831121202 | 77 | 219 | 2.0 | 4.0 | 0.00 | 0.00 | 0.00 | 89 | 101.4 |
| 20260831120702 | 77 | 215 | 2.0 | 5.0 | 0.00 | 0.00 | 0.00 | 89 | 101.4 |
| 20260831120202 | 77 | 249 | 2.0 | 6.0 | 0.00 | 0.00 | 0.00 | 89 | 101.4 |
| 20260831115702 | 77 | 220 | 3.0 | 6.0 | 0.00 | 0.00 | 0.00 | 89 | 101.4 |
| 20260831115202 | 77 | 234 | 5.0 | 5.0 | 0.00 | 0.00 | 0.00 | 89 | 101.4 |
| 20260831114702 | 77 | 178 | 4.0 | 9.0 | 0.00 | 0.00 | 0.00 | 89 | 101.4 |
| 20260831114201 | 77 | 211 | 2.0 | 5.0 | 0.00 | 0.00 | 0.00 | 88 | 101.4 |
| 20260831113702 | 77 | 279 | 3.0 | 3.0 | 0.00 | 0.00 | 0.00 | 88 | 101.4 |
| 20260831113202 | 77 | 191 | 3.0 | 5.0 | 0.00 | 0.00 | 0.00 | 88 | 101.4 |
| 20260831112701 | 77 | 211 | 2.0 | 4.0 | 0.00 | 0.00 | 0.00 | 88 | 101.4 |
| 20260831112202 | 77 | 222 | 2.0 | 4.0 | 0.00 | 0.00 | 0.00 | 87 | 101.4 |
| 20260831111702 | 77 | 242 | 4.0 | 5.0 | 0.00 | 0.00 | 0.00 | 87 | 101.4 |
| 20260831111202 | 77 | 205 | 2.0 | 4.0 | 0.00 | 0.00 | 0.00 | 87 | 101.4 |
| 20260831110702 | 78 | 223 | 2.0 | 4.0 | 0.00 | 0.00 | 0.00 | 87 | 101.4 |
| 20260831110202 | 78 | 216 | 4.0 | 6.0 | 0.00 | 0.00 | 0.00 | 86 | 101.4 |
| 20260831105702 | 78 | 255 | 2.0 | 4.0 | 0.00 | 0.00 | 0.00 | 87 | 101.4 |
| 20260831105202 | 78 | 202 | 2.0 | 4.0 | 0.00 | 0.00 | 0.00 | 87 | 101.4 |
| 20260831104701 | 78 | 224 | 1.0 | 6.0 | 0.00 | 0.00 | 0.00 | 87 | 101.4 |